Date String (YYYY-MM-DD hh:mm:ss) UTC,Instrument flags,Ambient pressure (hPa),Sample flow (lpm),Bypass flow (lpm),Sample temperature (°C),Ambient temperature (°C),ASC tube jacket temperature (°C),LED temperature (°C),Box temperature (°C),Sample RH (%),Span deviation,Mass concentration (μg/m³),Mass concentration (μg/m³),Mass concentration (μg/m³)
DateTimeUTC,F1_M11,P_M11,Q1_M11,Q2_M11,T1_M11,T2_M11,T3_M11,T4_M11,T5_M11,U1_M11,ZSPAN_M11,X0_M11,X2_M11,X1_M11
2022-11-08 03:00:00,,0823.2,5.00,0.00,27.2,25.5,00.0,36.2,29.0,13.5,0004.1,0015.34,0007.23,0006.04
2022-11-08 03:01:00,,0823.1,5.00,0.00,27.2,25.5,00.0,36.1,29.0,13.5,0004.4,0014.86,0007.28,0006.04
2022-11-08 03:02:00,,0823.1,5.00,0.00,27.2,25.5,00.0,36.1,29.0,13.5,0004.1,0014.33,0007.27,0006.03
2022-11-08 03:03:00,,0823.2,4.99,0.00,27.2,25.5,00.0,36.1,29.0,13.5,0003.3,0014.19,0007.20,0006.01
2022-11-08 03:04:00,,0823.2,5.00,0.00,27.2,25.5,00.0,36.1,28.9,13.5,0002.8,0013.86,0007.14,0005.96
2022-11-08 03:05:00,,0823.2,4.99,0.00,27.2,25.4,00.0,36.1,28.9,13.5,0002.0,0013.44,0007.10,0005.92
2022-11-08 03:06:00,,0823.2,4.99,0.00,27.1,25.4,00.0,36.1,28.9,13.6,0002.0,0013.34,0007.05,0005.90
2022-11-08 03:07:00,,0823.2,4.99,0.00,27.1,25.4,00.0,36.1,28.9,13.6,0001.8,0013.64,0007.07,0005.88
2022-11-08 03:08:00,,0823.1,5.00,0.00,27.1,25.4,00.0,36.1,28.9,13.7,0001.0,0013.99,0007.11,0005.87
2022-11-08 03:09:00,,0823.1,5.01,0.00,27.1,25.4,00.0,36.1,28.9,13.6,0001.1,0015.29,0007.21,0005.90
2022-11-08 03:10:00,,0823.1,5.01,0.00,27.1,25.4,00.0,36.0,28.9,13.6,0001.3,0015.67,0007.23,0005.95
2022-11-08 03:11:00,,0823.2,4.99,0.00,27.1,25.4,00.0,36.0,28.9,13.6,0001.2,0016.36,0007.35,0006.01
2022-11-08 03:12:00,,0823.2,4.99,0.00,27.1,25.4,00.0,36.0,28.8,13.6,0001.5,0016.21,0007.37,0006.07
2022-11-08 03:13:00,,0823.2,5.00,0.00,27.1,25.4,00.0,36.0,28.9,13.6,0001.2,0016.37,0007.41,0006.13
2022-11-08 03:14:00,,0823.2,5.02,0.00,27.1,25.4,00.0,36.0,28.8,13.6,0001.6,0017.42,0007.50,0006.19
2022-11-08 03:15:00,,0823.2,5.01,0.00,27.1,25.4,00.0,36.0,28.8,13.6,0002.2,0017.52,0007.60,0006.27
2022-11-08 03:16:00,,0823.2,4.99,0.00,27.0,25.4,00.0,35.9,28.9,13.6,0002.7,0017.60,0007.67,0006.34
2022-11-08 03:17:00,,0823.2,4.99,0.00,27.0,25.4,00.0,35.9,28.8,13.7,0002.4,0018.23,0007.68,0006.37
2022-11-08 03:18:00,,0823.2,5.00,0.00,27.0,25.3,00.0,35.9,28.8,13.7,0002.7,0018.14,0007.67,0006.42
2022-11-08 03:19:00,,0823.2,5.01,0.00,27.0,25.3,00.0,35.9,28.8,13.6,0002.7,0018.31,0007.70,0006.50
2022-11-08 03:20:00,,0823.2,5.00,0.00,27.0,25.3,00.0,35.9,28.8,13.6,0002.4,0018.47,0007.70,0006.53
2022-11-08 03:21:00,,0823.2,5.00,0.00,27.0,25.3,00.0,35.9,28.8,13.7,0001.8,0018.43,0007.71,0006.54
2022-11-08 03:22:00,,0823.2,4.99,0.00,27.0,25.3,00.0,35.9,28.7,13.7,0001.9,0018.21,0007.66,0006.55
2022-11-08 03:23:00,,0823.1,5.00,0.00,27.0,25.3,00.0,35.9,28.7,13.8,0001.8,0018.25,0007.59,0006.49
2022-11-08 03:24:00,,0823.1,4.99,0.00,27.0,25.3,00.0,35.9,28.7,13.8,0001.5,0018.15,0007.49,0006.41
2022-11-08 03:25:00,,0823.1,5.00,0.00,26.9,25.3,00.0,35.9,28.7,13.7,0001.4,0017.66,0007.47,0006.34
2022-11-08 03:26:00,,0823.1,4.99,0.00,26.9,25.3,00.0,35.9,28.7,13.7,0001.3,0018.04,0007.43,0006.28
2022-11-08 03:27:00,,0823.2,5.00,0.00,26.9,25.3,00.0,35.8,28.7,13.7,0001.3,0017.97,0007.35,0006.25
2022-11-08 03:28:00,,0823.2,5.00,0.00,26.9,25.3,00.0,35.8,28.7,13.7,0001.3,0017.26,0007.37,0006.25
2022-11-08 03:29:00,,0823.3,5.00,0.00,26.9,25.2,00.0,35.8,28.7,13.7,0001.3,0017.42,0007.42,0006.24
2022-11-08 03:30:00,,0823.2,5.00,0.00,26.9,25.2,00.0,35.8,28.7,13.7,0001.8,0017.63,0007.41,0006.21
2022-11-08 03:31:00,,0823.2,5.00,0.00,26.9,25.2,00.0,35.8,28.7,13.7,0002.0,0016.91,0007.42,0006.22
2022-11-08 03:32:00,,0823.2,5.00,0.00,26.9,25.2,00.0,35.8,28.7,13.7,0002.0,0017.16,0007.42,0006.22
2022-11-08 03:33:00,,0823.2,5.00,0.00,26.9,25.2,00.0,35.8,28.6,13.7,0002.0,0017.21,0007.40,0006.22
2022-11-08 03:34:00,,0823.2,5.00,0.00,26.9,25.2,00.0,35.8,28.7,13.7,0001.9,0017.55,0007.47,0006.30
2022-11-08 03:35:00,,0823.3,5.01,0.00,26.8,25.2,00.0,35.7,28.6,13.7,0002.6,0017.74,0007.62,0006.42
2022-11-08 03:36:00,,0823.3,5.01,0.00,26.8,25.2,00.0,35.7,28.6,13.7,0002.8,0017.84,0007.72,0006.52
2022-11-08 03:37:00,,0823.2,5.00,0.00,26.8,25.1,00.0,35.7,28.6,13.7,0002.9,0018.55,0007.83,0006.58
2022-11-08 03:38:00,,0823.2,5.01,0.00,26.8,25.1,00.0,35.7,28.6,13.7,0002.8,0019.37,0007.87,0006.61
2022-11-08 03:39:00,,0823.1,5.00,0.00,26.8,25.1,00.0,35.7,28.6,13.8,0003.1,0020.37,0007.87,0006.64
2022-11-08 03:40:00,,0823.1,5.00,0.00,26.8,25.1,00.0,35.7,28.6,13.8,0003.2,0021.33,0007.83,0006.63
2022-11-08 03:41:00,,0823.2,5.00,0.00,26.8,25.1,00.0,35.7,28.6,13.9,0003.1,0021.39,0007.74,0006.58
2022-11-08 03:42:00,,0823.2,4.99,0.00,26.8,25.1,00.0,35.7,28.5,13.8,0003.3,0020.86,0007.66,0006.53
2022-11-08 03:43:00,,0823.2,5.00,0.00,26.7,25.1,00.0,35.7,28.5,13.8,0003.7,0020.01,0007.62,0006.50
2022-11-08 03:44:00,,0823.2,4.99,0.00,26.7,25.0,00.0,35.7,28.5,13.8,0003.6,0020.21,0007.57,0006.46
2022-11-08 03:45:00,,0823.2,5.00,0.00,26.7,25.0,00.0,35.6,28.5,13.8,0003.6,0019.38,0007.53,0006.41
2022-11-08 03:46:00,,0823.1,4.99,0.00,26.7,25.0,00.0,35.6,28.5,13.8,0003.3,0020.46,0007.51,0006.35
2022-11-08 03:47:00,,0823.2,5.00,0.00,26.7,25.0,00.0,35.6,28.5,13.8,0003.3,0021.15,0007.42,0006.29
2022-11-08 03:48:00,,0823.2,5.01,0.00,26.7,25.0,00.0,35.6,28.5,13.8,0003.1,0020.67,0007.32,0006.26
2022-11-08 03:49:00,,0823.1,5.00,0.00,26.7,25.0,00.0,35.6,28.4,13.8,0003.3,0020.34,0007.37,0006.28
2022-11-08 03:50:00,,0823.2,5.00,0.00,26.7,25.0,00.0,35.6,28.4,13.8,0003.4,0019.49,0007.42,0006.30
2022-11-08 03:51:00,,0823.1,5.01,0.00,26.7,25.0,00.0,35.6,28.4,13.8,0003.3,0018.66,0007.54,0006.35
2022-11-08 03:52:00,,0823.1,5.01,0.00,26.6,25.0,00.0,35.6,28.4,13.8,0003.7,0018.28,0007.67,0006.43
2022-11-08 03:53:00,,0823.1,4.99,0.00,26.6,24.9,00.0,35.5,28.4,13.9,0003.7,0018.78,0007.74,0006.47
2022-11-08 03:54:00,,0823.1,4.99,0.00,26.6,24.9,00.0,35.5,28.4,14.0,0003.8,0018.60,0007.72,0006.47
2022-11-08 03:55:00,,0823.1,5.00,0.00,26.6,24.9,00.0,35.5,28.4,14.0,0004.0,0018.82,0007.78,0006.49
2022-11-08 03:56:00,,0823.1,5.01,0.00,26.6,24.9,00.0,35.5,28.4,13.9,0004.0,0019.01,0007.80,0006.52
2022-11-08 03:57:00,,0823.2,5.00,0.00,26.6,24.9,00.0,35.5,28.4,13.9,0004.0,0018.24,0007.78,0006.54
2022-11-08 03:58:00,,0823.2,4.99,0.00,26.6,24.9,00.0,35.5,28.3,13.9,0004.2,0017.78,0007.77,0006.55
2022-11-08 03:59:00,,0823.2,5.00,0.00,26.6,24.9,00.0,35.5,28.3,14.0,0004.3,0017.38,0007.81,0006.56
